Weather History for Vero Beach, FL

Change the Weather History Date:

Thursday, January 17, 2013

  Actual Average Record
Temperature  
Mean Temperature 70 °F 62 °F  
Max Temperature 83 °F 72 °F 85 °F (1987)
Min Temperature 56 °F 51 °F 31 °F (1965)
Degree Days  
Heating Degree Days 0 5  
Month to date heating degree days 0 85  
Since 1 July heating degree days 113 220  
Cooling Degree Days 5 2  
Month to date cooling degree days 99 34  
Year to date cooling degree days 99 34  
Growing Degree Days 20 (Base 50)    
Moisture  
Dew Point 62 °F    
Average Humidity 78    
Maximum Humidity 100    
Minimum Humidity 55    
Precipitation  
Precipitation 0.00 in 0.08 in 0.22 in (1963)
Month to date precipitation 0.63 1.37  
Year to date precipitation 0.63 1.37  
Sea Level Pressure  
Sea Level Pressure 30.04 in    
Wind  
Wind Speed 10 mph (WSW)    
Max Wind Speed 25 mph    
Max Gust Speed 33 mph    
Visibility 10 miles    
Events      
T = Trace of Precipitation, MM = Missing Value Source: NWS Daily Summary

Daily Weather History Graph

Daily Weather History Graph

Search for Another Location

Airport:

Trip Planner

Search our weather history database for the weather conditions in past years. The results will help you decide how hot, cold, wet, or windy it might be!

Date:

Astronomy

Jan. 17, 2013 Rise Set
Actual Time 7:13 AM EST 5:50 PM EST
Civil Twilight 6:48 AM EST 6:15 PM EST
Nautical Twilight 6:19 AM EST 6:44 PM EST
Astronomical Twilight 5:51 AM EST 7:12 PM EST
Moon 10:57 AM EST (1/17) 11:59 PM EST (1/17)
Length of Visible Light 11h 27m
Length of Day
10h 37m
Waxing Crescent, 37% of the Moon is Illuminated
Jan 17
Waxing Crescent
Jan 18
First Quarter
Jan 26
Full
Feb 3
Last Quarter
Feb 10
New

Hourly Weather History & Observations

Time (EST) Temp. Heat Index Dew Point Humidity Pressure Visibility Wind Dir Wind Speed Gust Speed Precip Events Conditions
12:53 AM 69.1 °F - 66.0 °F 90% 30.05 in 10.0 mi South 5.8 mph - N/A   Clear
1:53 AM 68.0 °F - 66.0 °F 93% 30.05 in 10.0 mi SW 4.6 mph - N/A   Clear
2:53 AM 66.9 °F - 64.9 °F 93% 30.04 in 10.0 mi South 4.6 mph - N/A   Clear
3:53 AM 64.9 °F - 64.0 °F 97% 30.04 in 10.0 mi Calm Calm - N/A   Mostly Cloudy
4:53 AM 66.9 °F - 64.9 °F 93% 30.04 in 10.0 mi Calm Calm - N/A   Overcast
5:53 AM 66.9 °F - 66.0 °F 97% 30.04 in 10.0 mi Calm Calm - N/A   Overcast
6:53 AM 68.0 °F - 66.0 °F 93% 30.06 in 10.0 mi SSW 3.5 mph - N/A   Overcast
7:53 AM 69.1 °F - 66.9 °F 93% 30.07 in 10.0 mi South 5.8 mph - N/A   Overcast
8:53 AM 70.0 °F - 66.9 °F 90% 30.08 in 10.0 mi South 4.6 mph - N/A   Mostly Cloudy
9:53 AM 75.9 °F - 68.0 °F 76% 30.09 in 10.0 mi South 12.7 mph - N/A   Clear
10:25 AM 77.0 °F - 68.0 °F 74% 30.08 in 10.0 mi SSW 11.5 mph 18.4 mph N/A   Mostly Cloudy
10:50 AM 78.8 °F - 66.2 °F 65% 30.06 in 10.0 mi SSW 15.0 mph 23.0 mph N/A   Scattered Clouds
10:53 AM 78.1 °F - 66.9 °F 68% 30.06 in 10.0 mi SSW 12.7 mph 23.0 mph N/A   Scattered Clouds
11:53 AM 80.1 °F 82.3 °F 66.9 °F 64% 30.03 in 10.0 mi SSW 13.8 mph 19.6 mph N/A   Mostly Cloudy
12:53 PM 82.0 °F 83.4 °F 64.0 °F 54% 29.99 in 10.0 mi SSW 15.0 mph 24.2 mph N/A   Clear
1:53 PM 81.0 °F 82.5 °F 64.0 °F 56% 29.96 in 10.0 mi SSW 13.8 mph 25.3 mph N/A   Scattered Clouds
2:53 PM 81.0 °F 82.5 °F 64.0 °F 56% 29.94 in 10.0 mi SW 11.5 mph - N/A   Scattered Clouds
3:53 PM 81.0 °F 82.5 °F 64.0 °F 56% 29.95 in 10.0 mi WSW 12.7 mph - N/A   Mostly Cloudy
4:18 PM 75.2 °F - 64.4 °F 69% 29.97 in 10.0 mi WNW 20.7 mph 27.6 mph N/A   Overcast
4:53 PM 71.1 °F - 62.1 °F 73% 29.99 in 10.0 mi WNW 24.2 mph 32.2 mph N/A   Scattered Clouds
5:23 PM 66.2 °F - 60.8 °F 83% 30.02 in 10.0 mi WNW 19.6 mph 28.8 mph N/A   Overcast
5:53 PM 64.0 °F - 57.0 °F 78% 30.04 in 10.0 mi WNW 20.7 mph 25.3 mph N/A   Overcast
6:41 PM 62.6 °F - 53.6 °F 72% 30.06 in 10.0 mi West 18.4 mph 26.5 mph N/A   Partly Cloudy
6:53 PM 62.1 °F - 54.0 °F 75% 30.06 in 10.0 mi WNW 17.3 mph - N/A   Partly Cloudy
7:53 PM 61.0 °F - 53.1 °F 75% 30.07 in 10.0 mi WNW 13.8 mph - N/A   Clear
8:53 PM 60.1 °F - 52.0 °F 75% 30.08 in 10.0 mi West 12.7 mph - N/A   Clear
9:53 PM 59.0 °F - 50.0 °F 72% 30.09 in 10.0 mi WNW 11.5 mph - N/A   Partly Cloudy
10:53 PM 57.9 °F - 48.0 °F 70% 30.10 in 10.0 mi WNW 10.4 mph - N/A   Scattered Clouds
11:53 PM 55.9 °F - 46.9 °F 72% 30.10 in 10.0 mi WNW 9.2 mph - N/A   Clear